Location: Alladorf
(49.9620°N, 11.3790°E)
Time: 19:56:48
(UTC+00:00)

Cosmos 923 Rocket - Pass Details

Date: 29 November 2020
Orbit: 757 x 786 km, 74.0° (Epoch: 24 January)

Event Time Altitude Azimuth Distance (km) Brightness Sun altitude
Exits shadow 03:53:47 86° 102° (ESE) 786 3.9 -27.3°
Drops below altitude 10° 03:59:02 10° 157° (SSE) 2,329 6.8 -26.5°
Sets 04:01:24 0° 157° (SSE) 3,257 7.6 -26.1°
